map of MCP home
Great Circle Mapper logo
MCP - Airport
Location
City:  Macapá, Pará, Brazil
ICAO / IATA:SBMQ / MCP

Details
Type:Airport (Aerodrome, Airfield)
Use:Public/Civil, International (customs port of entry)
Latitude:0°03'02"N (0.050664)
Longitude:51°04'20"W (-51.072177)
Datum:WGS 1984
Elevation:56 ft (17 m)
Variation:19.26°W (WMM2015 magnetic declination)
-0.04° annual change
Runways:1
Longest:6890 × 148 ft (2100 × 45 m), paved

Time
Time Zone:UTC-3
Local Time:

Weather
METAR:SBMQ 051300Z 08010KT 9999 SCT017 32/25 Q1013
TAF:SBMQ 051000Z 0512/0612 03005KT 9999 SCT018 TX34/0517Z TN24/0608Z
BECMG 0513/0515 05010KT
BECMG 0519/0521 03005KT
BECMG 0603/0605 SCT010
BECMG 0609/0611 BKN015
RMK PDY

Related Locations
Nearby:
Farthest:GEB: 12414 mi / 19979 km
Gebe, Gebe Island, ML, ID

Find:

   beyond  
but within

Other Information
Maps:
NOTAMs:
Links:
Sources:

  
flag of Brazil
flag of Pará
  

Sectional Chart

Flight Planning
at skyvector.com

Satellite Image

Google Maps Satellite view

 

Copyright © 2004-2015 Karl L. Swartz. All rights reserved.
The Great Circle Mapper name and logo are trademarks of the Great Circle Mapper.
All other trademarks mentioned herein belong to their respective owners.
Please see credits for attibutions and further copyright information.

  Follow gcmap on Facebook Follow gcmap on Twitter Follow gcmap on Google+

hCard Microformat

Geo Microformat